Overview Statistics Trail Chart Weather Telemetry Raw packets
 

This is the latest recevied weather packets stored in our database for station/object WC4PEM-4. If no packets are shown the sender has not sent any weather packets the latest 10 day(s).

<< 80 81 82 83 84 85 86 >>
Time Temp. Humidity Pressure Rain* Wind** Luminosity Snow
1788195681 31.67° C 69% 1017 hPa 0 mm - - -
1788195381 31.11° C 72% 1017.1 hPa 0 mm - - -
1788195081 31.11° C 70% 1017.3 hPa 0 mm - - -
1788194781 31.11° C 69% 1017.1 hPa 0 mm - - -
1788194481 30.56° C 68% 1017.2 hPa 0 mm - - -
1788194181 30.56° C 70% 1017.3 hPa 0 mm - - -
1788193881 30.56° C 71% 1017.5 hPa 0 mm - - -
1788193735 30.56° C 73% 1017.5 hPa 0 mm - - -
1788193592 30.56° C 73% 1017.5 hPa 0 mm - - -
1788193281 30.56° C 73% 1017.6 hPa 0 mm - - -
1788192981 30.56° C 76% 1017.5 hPa 0 mm - - -
1788192681 30.56° C 78% 1017.6 hPa 0 mm - - -
1788192381 30.56° C 76% 1017.7 hPa 0 mm - - -
1788192081 30.56° C 74% 1017.7 hPa 0 mm - - -
1788191781 30.56° C 72% 1017.7 hPa 0 mm - - -
1788191481 30.56° C 72% 1017.7 hPa 0 mm - - -
1788191181 30.56° C 72% 1017.7 hPa 0 mm - - -
1788190881 30.56° C 73% 1017.9 hPa 0 mm - - -
1788190581 30° C 72% 1017.9 hPa 0 mm - - -
1788190298 30° C 72% 1017.7 hPa 0 mm - - -
1788189981 30.56° C 71% 1017.8 hPa 0 mm - - -
1788189681 30.56° C 71% 1017.8 hPa 0 mm - - -
1788189511 30.56° C 72% 1017.9 hPa 0 mm - - -
1788189381 30.56° C 72% 1017.9 hPa 0 mm - - -
1788189081 31.11° C 73% 1017.9 hPa 0 mm - - -

* Rain latest hour (hover to see other rain measurements)
** Current wind speed in m/s (hover to see current wind gust speed)